User: anonymous   Login
Location: Karcze
(52.0945°N, 22.4786°E)
Time: 11:03:52
(UTC+00:00)
Language:

A-11 Canister half - Orbit

View from above orbital plane
View from above orbital plane
View from above satellite
View from above satellite

Ground track
Ground track

The orbit data is extracted from the following two-line orbital elements,

1 00051U 60009C   21214.84216143 -.00000159  00000-0 -72619-3 0  9995
2 00051  47.2121 154.6865 0108934 306.5308  52.5490 12.18277115714248
Epoch (UTC): 02 August 2021 20:12:42
Eccentricity: 0.0108934
inclination: 47.2121°
perigee height: 1513 km
apogee height: 1687 km
right ascension of ascending node: 154.6865°
argument of perigee: 306.5308°
revolutions per day: 12.18277115
mean anomaly at epoch: 52.5490°
orbit number at epoch: 71424

The dashed part of the orbit path shows where the satellite is in the earth's shadow,  

DLR